Home > Weather > Waiblingen > Past weeks

Flag for Germany Past Weather in Waiblingen, Baden-Württemberg, Germany — Yesterday and Last 2 Weeks

Now
75 °F

Passing clouds.


Feels Like: 78 °F
Forecast: 55 / 76 °F
Wind: 12 mph from West

Location: Stuttgart-Echterdingen

Current Time: Jun 30, 2016 at 4:06:41 PM

Latest Report: Jun 30, 2016 at 3:20 PM


Visibility: N/A

Pressure: 29.98 "Hg

Humidity: 50%

Dew Point: 55 °F

Location of WaiblingenLocation

Past Weather in Waiblingen — Graph

°F

Waiblingen Temperature Yesterday

Maximum temperature yesterday: 77 °F (at 4:50 PM)
Minimum temperature yesterday: 61 °F (at 3:50 AM)
Average temperature yesterday: 69 °F

High & Low Weather Summary for the Past Weeks

 TemperatureHumidityPressure
High91 °F (Jun 23, 4:50 PM)100% (Jun 17, 3:20 AM)30.27 "Hg (Jun 17, 3:20 AM)
Low48 °F (Jun 20, 4:20 AM)30% (Jun 23, 5:20 PM)29.59 "Hg (Jun 15, 4:20 PM)
Average65 °F74%30.04 "Hg
* Reported Jun 15 2:20 PM — Jun 30 2:50 PM, Waiblingen, Weather by CustomWeather, © 2016

Note: Actual official high and low records may vary slightly from our data, if they occured in-between our weather recording intervals... More about our weather records

Advertising

Waiblingen Weather History for the Previous 24 Hours

Scroll right to see more
 ConditionsComfort  
Time TempWeatherWind HumidityBarometerVisibility
2:50 PM
Thu, Jun 30
73 °FPassing clouds.8 mph57%30.01 "HgN/A
2:20 PM73 °FScattered clouds.7 mph61%30.01 "HgN/A
1:50 PM73 °FScattered clouds.8 mph61%30.01 "HgN/A
1:20 PM73 °FScattered clouds.8 mph57%30.01 "HgN/A
12:50 PM72 °FScattered clouds.7 mph65%30.01 "HgN/A
12:20 PM72 °FScattered clouds.7 mph69%30.01 "HgN/A
11:50 AM72 °FScattered clouds.6 mph69%30.01 "HgN/A
11:20 AM72 °FScattered clouds.7 mph73%30.01 "HgN/A
10:50 AM68 °FScattered clouds.6 mph78%30.01 "HgN/A
10:20 AM66 °FPartly sunny.6 mph78%30.01 "HgN/A
9:50 AM64 °FBroken clouds.3 mph88%30.01 "HgN/A
9:20 AM63 °FLight rain. Broken clouds.3 mph88%30.01 "HgN/A
8:50 AM63 °FLight rain. Broken clouds.2 mph88%30.01 "HgN/A
8:20 AM61 °FSprinkles. Broken clouds.1 mph94%30.01 "HgN/A
7:50 AM61 °FSprinkles. Broken clouds.1 mph94%30.01 "HgN/A
7:20 AM61 °FScattered showers. Partly sunny.2 mph94%30.01 "HgN/A
6:50 AM61 °FPartly sunny.3 mph94%29.98 "HgN/A
6:20 AM61 °FPassing clouds.2 mph88%30.01 "HgN/A
5:50 AM61 °FLight rain. Passing clouds.1 mph88%29.98 "HgN/A
5:20 AM61 °FLight rain. Passing clouds.2 mph94%29.98 "HgN/A
4:50 AM61 °FLight rain. Passing clouds.No wind88%29.95 "HgN/A
4:20 AM59 °FClear.2 mph94%29.95 "Hg10 mi
3:50 AM59 °FClear.2 mph88%29.95 "Hg10 mi
3:20 AM59 °FClear.No wind88%29.95 "Hg10 mi
2:50 AM61 °FClear.2 mph83%29.95 "Hg10 mi
2:20 AM59 °FClear.5 mph88%29.95 "Hg10 mi
1:50 AM59 °FClear.No wind88%29.95 "Hg10 mi
1:20 AM61 °FClear.3 mph83%29.95 "Hg10 mi
12:50 AM63 °FClear.2 mph77%29.95 "Hg10 mi
12:20 AM63 °FClear.2 mph83%29.98 "Hg10 mi
11:50 PM
Wed, Jun 29
64 °FClear.No wind73%29.98 "Hg10 mi
11:20 PM64 °FClear.2 mph78%29.98 "Hg10 mi
10:50 PM66 °FClear.3 mph73%29.98 "Hg10 mi
10:20 PM66 °FSunny.6 mph73%29.98 "Hg10 mi
9:50 PM68 °FSunny.5 mph69%29.95 "Hg10 mi
9:20 PM70 °FSunny.7 mph64%29.95 "Hg10 mi
8:50 PM72 °FPassing clouds.7 mph61%29.95 "HgN/A
8:20 PM73 °FSunny.8 mph57%29.95 "Hg10 mi
7:50 PM73 °FPassing clouds.10 mph57%29.95 "HgN/A
7:20 PM75 °FSunny.6 mph54%29.92 "Hg10 mi
6:50 PM73 °FPassing clouds.8 mph57%29.95 "HgN/A
6:20 PM75 °FPassing clouds.10 mph54%29.95 "HgN/A
5:50 PM77 °FPassing clouds.8 mph47%29.95 "HgN/A
5:20 PM77 °FPassing clouds.8 mph51%29.95 "HgN/A
4:50 PM77 °FPassing clouds.6 mph47%29.95 "HgN/A
4:20 PM75 °FPassing clouds.9 mph54%29.95 "HgN/A
Weather by CustomWeather, © 2016

See weather overviewHow to use our weather pages